Resia Pass, Italy

11:48 PM CEST on August 17, 2017 (GMT +0200)
Resia Pass

Weather History for LIVE - October, 2012

Change the Weather History Date:

Wednesday, October 3, 2012

  Actual Average Record
Temperature  
Mean Temperature 50 °F -  
Max Temperature 59 °F 54 °F 69 °F (2007)
Min Temperature 42 °F 39 °F 33 °F (2008)
Degree Days  
Heating Degree Days 14    
Moisture  
Dew Point 42 °F    
Average Humidity 72    
Maximum Humidity 87    
Minimum Humidity 41    
Precipitation  
Precipitation 0.00 in - - ()
Sea Level Pressure  
Sea Level Pressure 30.13 in    
Wind  
Wind Speed 4 mph ()    
Max Wind Speed 9 mph    
Max Gust Speed -    
Visibility 6.2 miles    
Events      
Averages and records for this station are not official NWS values.
T = Trace of Precipitation, MM = Missing Value Source: Averaged Metar Reports

Daily Weather History Graph

Daily Weather History Graph

Search for Another Location

Airport or City:

Trip Planner

Search our weather history database for the weather conditions in past years. The results will help you decide how hot, cold, wet, or windy it might be!

Date:

Astronomy

Oct. 03, 2012 Rise Set
Actual Time 7:19 AM CEST 6:53 PM CEST
Civil Twilight 6:49 AM CEST 7:23 PM CEST
Nautical Twilight 6:14 AM CEST 7:58 PM CEST
Astronomical Twilight 5:38 AM CEST 8:34 PM CEST
Moon 8:18 PM CEST (10/3) 10:42 AM CEST (10/3)
Length of Visible Light 12h 34m
Length of Day
11h 33m
Waning Gibbous, 90% of the Moon is Illuminated
Oct 3
Waning Gibbous
Oct 8
Last Quarter
Oct 15
New
Oct 22
First Quarter
Oct 29
Full

Hourly Weather History & Observations

Time (CEST) Temp. Windchill Dew Point Humidity Pressure Visibility Wind Dir Wind Speed Gust Speed Precip Events Conditions
12:55 AM 44.6 °F 43.1 °F 39.2 °F 81% 30.15 in - North 3.5 mph - N/A   Clear
1:55 AM 44.6 °F 43.1 °F 39.2 °F 81% 30.15 in - North 3.5 mph - N/A   Clear
3:55 AM 44.6 °F - 39.2 °F 81% 30.15 in - NNE 2.3 mph - N/A   Clear
4:55 AM 44.6 °F 43.1 °F 39.2 °F 81% 30.15 in - North 3.5 mph - N/A   Clear
5:55 AM 44.6 °F 43.1 °F 39.2 °F 81% 30.15 in - NNE 3.5 mph - N/A   Clear
6:55 AM 44.6 °F 43.1 °F 39.2 °F 81% 30.15 in - NNE 3.5 mph - N/A   Clear
7:55 AM 42.8 °F 40.1 °F 39.2 °F 87% 30.15 in - North 4.6 mph - N/A   Clear
8:55 AM 42.8 °F 41.1 °F 39.2 °F 87% 30.15 in - North 3.5 mph - N/A   Clear
9:55 AM 46.4 °F 44.3 °F 39.2 °F 76% 30.15 in - North 4.6 mph - N/A   Clear
10:55 AM 51.8 °F - 37.4 °F 58% 30.15 in - North 3.5 mph - N/A   Clear
11:55 AM 57.2 °F - 33.8 °F 41% 30.15 in 6.2 mi South 8.1 mph - N/A   Partly Cloudy
12:55 PM 59.0 °F - 39.2 °F 48% 30.15 in 6.2 mi SSE 9.2 mph - N/A   Scattered Clouds
1:55 PM 59.0 °F - 37.4 °F 45% 30.15 in 6.2 mi SSE 9.2 mph - N/A   Scattered Clouds
2:55 PM 59.0 °F - 42.8 °F 55% 30.12 in 6.2 mi South 6.9 mph - N/A   Partly Cloudy
3:55 PM 57.2 °F - 42.8 °F 59% 30.12 in 6.2 mi South 9.2 mph - N/A   Scattered Clouds
4:55 PM 57.2 °F - 44.6 °F 63% 30.09 in 6.2 mi SSE 8.1 mph - N/A   Scattered Clouds
5:55 PM 55.4 °F - 46.4 °F 72% 30.09 in 6.2 mi SSE 6.9 mph - N/A   Scattered Clouds
6:55 PM 53.6 °F - 46.4 °F 77% 30.09 in 6.2 mi SE 5.8 mph - N/A   Mostly Cloudy
7:55 PM 53.6 °F - 48.2 °F 82% 30.09 in 6.2 mi SSE 4.6 mph - N/A   Scattered Clouds
8:55 PM 53.6 °F - 48.2 °F 82% 30.12 in 6.2 mi SSW 2.3 mph - N/A   Mostly Cloudy
9:55 PM 55.4 °F - 50.0 °F 82% 30.09 in 6.2 mi SSE 2.3 mph - N/A   Mostly Cloudy
10:55 PM 53.6 °F - 48.2 °F 82% 30.12 in 6.2 mi South 2.3 mph - N/A   Scattered Clouds
11:55 PM 51.8 °F - 46.4 °F 82% 30.12 in 6.2 mi SW 5.8 mph - N/A   Scattered Clouds